User: anonymous   Login
Location: Unspecified
(0.0000°N, 0.0000°E)
Time: 16:12:46
(UTC+00:00)
Language:

Optus B1 - Orbit

View from above orbital plane
View from above orbital plane
View from above satellite
View from above satellite

Ground track
Ground track

The orbit data is extracted from the following two-line orbital elements,

1 22087U 92054A   17022.23245122  .00000061  00000-0  00000+0 0  9998
2 22087   8.4763  47.0802 0003038  30.8680 348.2450  0.99203792100647
Epoch (UTC): 22 January 2017 05:34:43
Eccentricity: 0.0003038
inclination: 8.4763°
perigee height: 36075 km
apogee height: 36101 km
right ascension of ascending node: 47.0802°
argument of perigee: 30.8680°
revolutions per day: 0.99203792
mean anomaly at epoch: 348.2450°
orbit number at epoch: 10064

The dashed part of the orbit path shows where the satellite is in the earth's shadow,  

DLR